When you browse on this site, cookies collect data to enhance your experience and personalize the content and advertising you see.
Visit our Privacy Policy to learn more. By continuing to use the site, you agree to this use of cookies and data.
  • In Latvia
  • List of Countries
  • For 7 days
  • Water Temperature
  • Satellite Maps
  • Weather Map
  • Weather Widgets
  • user-avatar
    Login

    Hourly Weather Ogre

    Today, 20 July, Saturday

    Time Temperature Precipitation Wind Pressure Humidity
    00:00 +13°C° 0 mm 1 mps 758 mmHg 92%
    01:00 +13°C° 0 mm 1 mps 758 mmHg 93%
    02:00 +13°C° 0 mm 1 mps 758 mmHg 95%
    03:00 +13°C° 0 mm 1 mps 758 mmHg 95%
    04:00 +13°C° 0 mm 1 mps 759 mmHg 94%
    05:00 +13°C° 0 mm 1 mps 759 mmHg 94%
    06:00 +15°C° 0 mm 1 mps 759 mmHg 84%
    07:00 +17°C° 0 mm 2 mps 759 mmHg 75%
    08:00 +19°C° 0 mm 2 mps 759 mmHg 65%
    09:00 +20°C° 0 mm 2 mps 759 mmHg 58%
    10:00 +23°C° 0 mm 2 mps 759 mmHg 51%
    11:00 +24°C° 0 mm 2 mps 759 mmHg 45%
    12:00 +25°C° 0 mm 2 mps 759 mmHg 43%
    13:00 +25°C° 0 mm 2 mps 759 mmHg 41%
    14:00 +26°C° 0 mm 2 mps 759 mmHg 40%
    15:00 +26°C° 0 mm 2 mps 759 mmHg 41%
    16:00 +25°C° 0 mm 2 mps 759 mmHg 42%
    17:00 +25°C° 0 mm 2 mps 759 mmHg 43%
    18:00 +23°C° 0 mm 2 mps 759 mmHg 52%
    19:00 +21°C° 0 mm 1 mps 760 mmHg 61%
    20:00 +20°C° 0 mm 1 mps 760 mmHg 70%
    21:00 +18°C° 0 mm 1 mps 760 mmHg 74%
    22:00 +16°C° 0 mm 1 mps 760 mmHg 78%
    23:00 +13°C° 0 mm 0 mps 761 mmHg 81%

    Tomorrow, 21 July, Sunday

    Time Temperature Precipitation Wind Pressure Humidity
    00:00 +13°C° 0 mm 0 mps 761 mmHg 82%
    01:00 +13°C° 0 mm 0 mps 761 mmHg 84%
    02:00 +12°C° 0 mm 0 mps 761 mmHg 85%
    03:00 +12°C° 0 mm 0 mps 761 mmHg 85%
    04:00 +13°C° 0 mm 0 mps 761 mmHg 85%
    05:00 +13°C° 0 mm 0 mps 761 mmHg 84%
    06:00 +16°C° 0 mm 1 mps 761 mmHg 77%
    07:00 +19°C° 0 mm 1 mps 761 mmHg 69%
    08:00 +21°C° 0 mm 1 mps 761 mmHg 62%
    09:00 +23°C° 0 mm 1 mps 760 mmHg 56%
    10:00 +25°C° 0 mm 1 mps 760 mmHg 50%
    11:00 +26°C° 0 mm 2 mps 760 mmHg 44%
    12:00 +27°C° 0 mm 2 mps 760 mmHg 42%
    13:00 +27°C° 0 mm 2 mps 760 mmHg 40%
    14:00 +28°C° 0 mm 2 mps 759 mmHg 38%
    15:00 +28°C° 0 mm 2 mps 759 mmHg 40%
    16:00 +28°C° 0 mm 2 mps 759 mmHg 41%
    17:00 +28°C° 0 mm 2 mps 759 mmHg 43%
    18:00 +26°C° 0 mm 1 mps 759 mmHg 53%
    19:00 +24°C° 0 mm 1 mps 758 mmHg 62%
    20:00 +20°C° 0 mm 0 mps 758 mmHg 72%
    21:00 +21°C° 0.1 mm 1 mps 758 mmHg 75%
    22:00 +20°C° 0.1 mm 1 mps 758 mmHg 78%
    23:00 +18°C° 0.1 mm 2 mps 759 mmHg 81%

    Day after tomorrow, 22 July, Monday

    Time Temperature Precipitation Wind Pressure Humidity
    00:00 +19°C° 0.5 mm 1 mps 758 mmHg 85%
    01:00 +18°C° 0.5 mm 1 mps 758 mmHg 89%
    02:00 +18°C° 0.5 mm 1 mps 758 mmHg 93%
    03:00 +18°C° 0.6 mm 1 mps 758 mmHg 94%
    04:00 +18°C° 0.6 mm 1 mps 758 mmHg 95%
    05:00 +18°C° 0.6 mm 1 mps 758 mmHg 96%
    06:00 +18°C° 0.8 mm 1 mps 758 mmHg 96%
    07:00 +18°C° 0.8 mm 1 mps 758 mmHg 97%
    08:00 +18°C° 0.8 mm 1 mps 758 mmHg 97%
    09:00 +18°C° 0.6 mm 1 mps 758 mmHg 97%
    10:00 +18°C° 0.6 mm 1 mps 758 mmHg 96%
    11:00 +18°C° 0.6 mm 1 mps 758 mmHg 96%
    12:00 +19°C° 0.3 mm 1 mps 758 mmHg 96%
    13:00 +19°C° 0.3 mm 1 mps 758 mmHg 96%
    14:00 +19°C° 0.3 mm 1 mps 758 mmHg 96%
    15:00 +18°C° 0.3 mm 2 mps 758 mmHg 96%
    16:00 +18°C° 0.3 mm 2 mps 758 mmHg 96%
    17:00 +17°C° 0.3 mm 2 mps 758 mmHg 96%
    18:00 +17°C° 0.6 mm 2 mps 758 mmHg 96%
    19:00 +17°C° 0.6 mm 2 mps 758 mmHg 97%
    20:00 +17°C° 0.6 mm 2 mps 758 mmHg 97%
    21:00 +17°C° 0.1 mm 2 mps 758 mmHg 96%
    22:00 +18°C° 0.1 mm 1 mps 758 mmHg 96%
    23:00 +18°C° 0.1 mm 1 mps 758 mmHg 95%

    23 July, Tuesday

    Time Temperature Precipitation Wind Pressure Humidity
    00:00 +18°C° 0 mm 1 mps 758 mmHg 95%
    01:00 +16°C° 0 mm 1 mps 759 mmHg 95%
    02:00 +16°C° 0 mm 1 mps 759 mmHg 95%
    03:00 +16°C° 0 mm 1 mps 759 mmHg 95%
    04:00 +16°C° 0 mm 1 mps 759 mmHg 94%
    05:00 +15°C° 0 mm 1 mps 759 mmHg 94%
    06:00 +18°C° 0 mm 1 mps 759 mmHg 89%
    07:00 +20°C° 0 mm 1 mps 759 mmHg 84%
    08:00 +21°C° 0 mm 1 mps 759 mmHg 78%
    09:00 +23°C° 0 mm 1 mps 759 mmHg 68%
    10:00 +24°C° 0 mm 1 mps 759 mmHg 58%
    11:00 +26°C° 0 mm 2 mps 759 mmHg 48%
    12:00 +26°C° 0 mm 2 mps 759 mmHg 47%
    13:00 +27°C° 0 mm 2 mps 759 mmHg 46%
    14:00 +27°C° 0 mm 3 mps 759 mmHg 44%
    15:00 +27°C° 0 mm 3 mps 758 mmHg 46%
    16:00 +26°C° 0 mm 2 mps 758 mmHg 47%
    17:00 +26°C° 0 mm 2 mps 758 mmHg 48%
    18:00 +24°C° 0 mm 2 mps 758 mmHg 59%
    19:00 +21°C° 0 mm 2 mps 758 mmHg 69%
    20:00 +19°C° 0 mm 2 mps 758 mmHg 80%
    21:00 +18°C° 0 mm 2 mps 758 mmHg 85%
    22:00 +18°C° 0 mm 1 mps 758 mmHg 91%
    23:00 +16°C° 0 mm 1 mps 759 mmHg 96%

    24 July, Wednesday

    Time Temperature Precipitation Wind Pressure Humidity
    00:00 +16°C° 0 mm 1 mps 759 mmHg 96%
    01:00 +15°C° 0 mm 1 mps 759 mmHg 96%
    02:00 +15°C° 0 mm 1 mps 759 mmHg 96%
    03:00 +15°C° 0 mm 1 mps 759 mmHg 96%
    04:00 +15°C° 0 mm 1 mps 759 mmHg 96%
    05:00 +15°C° 0 mm 1 mps 758 mmHg 96%
    06:00 +18°C° 0 mm 1 mps 759 mmHg 90%
    07:00 +18°C° 0 mm 2 mps 759 mmHg 83%
    08:00 +20°C° 0 mm 2 mps 759 mmHg 77%
    09:00 +21°C° 0 mm 2 mps 759 mmHg 72%
    10:00 +23°C° 0 mm 2 mps 759 mmHg 67%
    11:00 +24°C° 0 mm 3 mps 759 mmHg 62%
    12:00 +24°C° 0 mm 3 mps 759 mmHg 60%
    13:00 +25°C° 0 mm 3 mps 759 mmHg 58%
    14:00 +25°C° 0 mm 4 mps 759 mmHg 56%
    15:00 +25°C° 0 mm 4 mps 759 mmHg 57%
    16:00 +25°C° 0 mm 4 mps 759 mmHg 58%
    17:00 +24°C° 0 mm 3 mps 759 mmHg 58%
    18:00 +22°C° 0 mm 3 mps 759 mmHg 66%
    19:00 +20°C° 0 mm 2 mps 759 mmHg 74%
    20:00 +20°C° 0 mm 1 mps 759 mmHg 81%
    21:00 +19°C° 0 mm 1 mps 759 mmHg 85%
    22:00 +18°C° 0 mm 1 mps 759 mmHg 89%
    23:00 +16°C° 0 mm 1 mps 760 mmHg 93%

    25 July, Thursday

    Time Temperature Precipitation Wind Pressure Humidity
    00:00 +16°C° 0 mm 1 mps 760 mmHg 94%
    01:00 +16°C° 0 mm 1 mps 760 mmHg 94%
    02:00 +16°C° 0 mm 1 mps 760 mmHg 94%
    03:00 +16°C° 0 mm 1 mps 760 mmHg 94%
    04:00 +16°C° 0 mm 1 mps 760 mmHg 93%
    05:00 +18°C° 0 mm 1 mps 760 mmHg 92%
    06:00 +18°C° 0 mm 1 mps 760 mmHg 89%
    07:00 +19°C° 0 mm 1 mps 760 mmHg 85%
    08:00 +19°C° 0 mm 2 mps 760 mmHg 82%
    09:00 +20°C° 0 mm 2 mps 760 mmHg 74%
    10:00 +22°C° 0 mm 3 mps 760 mmHg 67%
    11:00 +24°C° 0 mm 3 mps 760 mmHg 59%
    12:00 +23°C° 0 mm 4 mps 760 mmHg 53%
    13:00 +23°C° 0 mm 4 mps 761 mmHg 48%
    14:00 +25°C° 0 mm 4 mps 761 mmHg 43%
    15:00 +23°C° 0 mm 4 mps 761 mmHg 45%
    16:00 +23°C° 0 mm 4 mps 761 mmHg 47%
    17:00 +22°C° 0 mm 4 mps 761 mmHg 50%
    18:00 +21°C° 0 mm 4 mps 761 mmHg 58%
    19:00 +19°C° 0 mm 3 mps 761 mmHg 66%
    20:00 +18°C° 0 mm 2 mps 762 mmHg 74%
    21:00 +17°C° 0 mm 2 mps 762 mmHg 78%
    22:00 +16°C° 0 mm 2 mps 762 mmHg 83%
    23:00 +15°C° 0 mm 2 mps 762 mmHg 87%
    Show more